Погода в Полесске

Россия / Калининградская область     54°51′45″N   21°06′35″E
темп.,
°C
ветер,
м/с
пор.,
м/с
влажн.,
%
обл.,
%
осадки,
мм/ч
давл.,
гПа
погр.,
м
13 апреля, вт
вт1323:00+3сз5991100 0.2 1022660
02:00+4зсз4884100 0.2 1022428
05:00+4сз41081100 0.0 1023480
08:00+5сз4877100 0.1 1024461
11:00+6сз5657100 0.0 1024852
14:00+7ссз5649100 0.0 10251151
17:00+6ссз565393 0.0 1024926
20:00+3сз2482100 0.0 1024147
14 апреля, ср
ср1423:00+2сз2492100 0.0 1023125
02:00+1сз2395100 0.0 102352
05:00+2сз2492100 0.0 1022102
08:00+4ссз2481100 0.0 1022363
11:00+6с4566100 0.0 1022756
14:00+6ссз5766100 0.0 1022614
17:00+5с61071100 0.0 1021677
20:00+4с61083100 0.3 1022681
15 апреля, чт
чт1523:00+5ссв51073100 0.1 1021872
02:00+3с71394100 0.6 1021725
05:00+3ссв71494100 1.0 1020833
08:00+5св61380100 1.1 1020773
11:00+5св61281100 0.1 1021759
14:00+6св61278100 0.1 1021745
17:00+6св51376100 0.1 1021797
20:00+6ссв258197 0.2 1022123
16 апреля, пт
пт1623:00+5ссв4117089 0.0 1022327
02:00+4ссв41172100 0.0 1021366
05:00+4ссв4973100 0.0 1021416
08:00+4ссв4980100 0.1 1021505
11:00+3ссв4890100 0.8 1021473
14:00+5ссв4887100 0.9 1021559
17:00+6ссв399196 0.3 1021402
20:00+7с3794100 0.3 1021178
17 апреля, сб
сб1723:00+7ссв399399 0.0 1021271
02:00+7ссв3794100 0.0 1021230
05:00+7ссв3991100 0.0 1022298
08:00+7св4987100 0.0 1022393
11:00+9всв4781100 0.4 1022563
14:00+9св468571 0.4 1023448
17:00+11всв5774100 0.0 1023908
20:00+10св4107968 0.0 1023324